Regional Weather Roundup
Issued by NWS

Home | Current Version | Previous Version | Graphics & Text | Print | Product List | Glossary On
Versions: 1 2 3 4 5 6 7 8 9 10 11 12 13 14 15 16 17 18 19 20 21 22 23 24 25 26 27 28 29 30 31 32 33 34 35 36 37 38 39 40 41 42 43 44 45 46 47 48 49 50
000
ASUS43 KIND 040759
RWRIN

WEATHER ROUNDUP FOR INDIANA
NATIONAL WEATHER SERVICE INDIANAPOLIS IN
400 AM EDT MON MAY 04 2015

NOTE: "FAIR" INDICATES FEW OR NO CLOUDS BELOW 12,000 FEET WITH NO
SIGNIFICANT WEATHER AND/OR OBSTRUCTIONS TO VISIBILITY.

* - STATION DOES NOT REPORT WEATHER SUCH AS PRECIPITATION OR FOG.

+ - STATION NOT QUALITY CONTROLLED BY THE NATIONAL WEATHER SERVICE.
    USE DATA WITH CAUTION...ESPECIALLY DEWPOINT AND RELATIVE
    HUMIDITY OBSERVATIONS.

INZ001>003-010>013-019-020-040900-
NORTHWEST INDIANA

CITY           SKY/WX    TMP DP  RH WIND       PRES   REMARKS

$$

LMZ046-743>745-040900-
SOUTHERN LAKE MICHIGAN

STATION/POSITION TIME  TEMP    WIND        PRES    WAVE
                       AIR SEA DIR/SP/G            HT
                 (UTC) (F)     (DEG/KT/KT) (MB)    (FT)
BURNS HARBOR     0700   65     190/ 14/ 18 1014.2S
MICHIGAN CITY    0700   67     150/ 15/ 18   N/A
5NW MICH CITY    0700   61 50  200/ 12/ 14   N/A     1

$$

INZ004-005-014>016-021>024-040900-
NORTH CENTRAL INDIANA

CITY           SKY/WX    TMP DP  RH WIND       PRES   REMARKS
GOSHEN         MOCLDY    65  47  52 S12       29.99S
SOUTH BEND     MOCLDY    66  45  46 S12       29.97S

$$

INZ006>009-017-018-025>027-040900-
NORTHEAST INDIANA

CITY           SKY/WX    TMP DP  RH WIND       PRES   REMARKS
ANGOLA *+      MOCLDY    64  54  68 SW6       30.02S
FORT WAYNE     CLOUDY    62  49  62 S10       30.04S

$$

INZ028-029-035-036-043>045-051>053-040900-
WEST CENTRAL INDIANA

CITY           SKY/WX    TMP DP  RH WIND       PRES   REMARKS
CRAWFORDSVL +  PTCLDY    58  43  57 S8        30.04S
GREENCASTLE +  CLEAR     63  43  48 S5        30.06S
LAFAYETTE      PTCLDY    61  48  62 SW6       30.02S
TERRE HAUTE    CLEAR     60  48  64 S7        30.05S

$$

INZ030>032-037>040-046>048-054>057-064-065-040900-
CENTRAL INDIANA

CITY           SKY/WX    TMP DP  RH WIND       PRES   REMARKS
GREENWOOD *+   CLEAR     59  46  63 S7        30.07
INDIANAPOLIS   PTCLDY    59  47  64 S8        30.04S
-EAGLE CREEK   CLEAR     60  48  64 CALM      30.05S
MT COMFORT *+  CLEAR     59  41  51 S6        30.07S
SHELBYVILLE    CLEAR     62  49  62 S9        30.07S

$$

INZ033-034-041-042-049-050-058-059-040900-
EAST CENTRAL INDIANA

CITY           SKY/WX    TMP DP  RH WIND       PRES   REMARKS
MUNCIE         PTCLDY    62  48  60 S8        30.06S

$$

INZ060-061-067>069-081>083-085>088-040900-
SOUTHWEST INDIANA

CITY           SKY/WX    TMP DP  RH WIND       PRES   REMARKS
EVANSVILLE     PTCLDY    60  50  69 CALM      30.09R
HUNTINGBURG *+ CLEAR     61  48  63 S6        30.10R

$$

INZ062-063-066-070>080-084-089>092-040900-
SOUTH CENTRAL AND SOUTHEAST INDIANA

CITY           SKY/WX    TMP DP  RH WIND       PRES   REMARKS
BLOOMINGTON    CLEAR     59  48  67 S6        30.08R
MADISON *+     CLEAR     55  48  76 CALM      30.12S
SEYMOUR +      CLEAR     57  50  77 S6        30.09R

$$




USA.gov is the U.S. government's official web portal to all federal, state and local government web resources and services.